Year,Month,Day,Hour,Minute,Value (Times are PST for temperature in C)
2015,05,29,00,00,13.80
2015,05,29,00,01,13.70
2015,05,29,00,02,13.70
2015,05,29,00,03,13.70
2015,05,29,00,04,13.70
2015,05,29,00,05,13.70
2015,05,29,00,06,13.70
2015,05,29,00,07,13.70
2015,05,29,00,08,13.70
2015,05,29,00,09,13.70
2015,05,29,00,10,13.70
2015,05,29,00,11,13.70
2015,05,29,00,12,13.70
2015,05,29,00,13,13.70
2015,05,29,00,14,13.70
2015,05,29,00,15,13.70
2015,05,29,00,16,13.70
2015,05,29,00,17,13.70
2015,05,29,00,18,13.70
2015,05,29,00,19,13.70
2015,05,29,00,20,13.70
2015,05,29,00,21,13.70
2015,05,29,00,22,13.70
2015,05,29,00,23,13.60
2015,05,29,00,24,13.60
2015,05,29,00,25,13.60
2015,05,29,00,26,13.60
2015,05,29,00,27,13.60
2015,05,29,00,28,13.60
2015,05,29,00,29,13.60
2015,05,29,00,30,13.60
2015,05,29,00,31,13.60
2015,05,29,00,32,13.60
2015,05,29,00,33,13.60
2015,05,29,00,34,13.60
2015,05,29,00,35,13.60
2015,05,29,00,36,13.70
2015,05,29,00,37,13.60
2015,05,29,00,38,13.60
2015,05,29,00,39,13.60
2015,05,29,00,40,13.60
2015,05,29,00,41,13.60
2015,05,29,00,42,13.60
2015,05,29,00,43,13.60
2015,05,29,00,44,13.60
2015,05,29,00,45,13.60
2015,05,29,00,46,13.60
2015,05,29,00,47,13.70
2015,05,29,00,48,13.70
2015,05,29,00,49,13.70
2015,05,29,00,50,13.70
2015,05,29,00,51,13.70
2015,05,29,00,52,13.70
2015,05,29,00,53,13.70
2015,05,29,00,54,13.70
2015,05,29,00,55,13.70
2015,05,29,00,56,13.70
2015,05,29,00,57,13.70
2015,05,29,00,58,13.70
2015,05,29,00,59,13.70
2015,05,29,01,00,13.70
2015,05,29,01,01,13.70
2015,05,29,01,02,13.70
2015,05,29,01,03,13.70
2015,05,29,01,04,13.70
2015,05,29,01,05,13.70
2015,05,29,01,06,13.70
2015,05,29,01,07,13.70
2015,05,29,01,08,13.60
2015,05,29,01,09,13.60
2015,05,29,01,10,13.60
2015,05,29,01,11,13.50
2015,05,29,01,12,13.50
2015,05,29,01,13,13.50
2015,05,29,01,14,13.50
2015,05,29,01,15,13.50
2015,05,29,01,16,13.40
2015,05,29,01,17,13.40
2015,05,29,01,18,13.40
2015,05,29,01,19,13.50
2015,05,29,01,20,13.50
2015,05,29,01,21,13.50
2015,05,29,01,22,13.50
2015,05,29,01,23,13.50
2015,05,29,01,24,13.50
2015,05,29,01,25,13.50
2015,05,29,01,26,13.50
2015,05,29,01,27,13.40
2015,05,29,01,28,13.40
2015,05,29,01,29,13.40
2015,05,29,01,30,13.40
2015,05,29,01,31,13.40
2015,05,29,01,32,13.40
2015,05,29,01,33,13.40
2015,05,29,01,34,13.50
2015,05,29,01,35,13.50
2015,05,29,01,36,13.50
2015,05,29,01,37,13.50
2015,05,29,01,38,13.50
2015,05,29,01,39,13.50
2015,05,29,01,40,13.50
2015,05,29,01,41,13.40
2015,05,29,01,42,13.40
2015,05,29,01,43,13.40
2015,05,29,01,44,13.40
2015,05,29,01,45,13.40
2015,05,29,01,46,13.40
2015,05,29,01,47,13.40
2015,05,29,01,48,13.40
2015,05,29,01,49,13.40
2015,05,29,01,50,13.40
2015,05,29,01,51,13.50
2015,05,29,01,52,13.50
2015,05,29,01,53,13.50
2015,05,29,01,54,13.50
2015,05,29,01,55,13.50
2015,05,29,01,56,13.50
2015,05,29,01,57,13.40
2015,05,29,01,58,13.40
2015,05,29,01,59,13.40
2015,05,29,02,00,13.40
2015,05,29,02,01,13.30
2015,05,29,02,02,13.30
2015,05,29,02,03,13.30
2015,05,29,02,04,13.30
2015,05,29,02,05,13.30
2015,05,29,02,06,13.30
2015,05,29,02,07,13.30
2015,05,29,02,08,13.30
2015,05,29,02,09,13.30
2015,05,29,02,10,13.30
2015,05,29,02,11,13.30
2015,05,29,02,12,13.30
2015,05,29,02,13,13.30
2015,05,29,02,14,13.20
2015,05,29,02,15,13.20
2015,05,29,02,16,13.20
2015,05,29,02,17,13.20
2015,05,29,02,18,13.20
2015,05,29,02,19,13.20
2015,05,29,02,20,13.20
2015,05,29,02,21,13.20
2015,05,29,02,22,13.10
2015,05,29,02,23,13.10
2015,05,29,02,24,13.10
2015,05,29,02,25,13.10
2015,05,29,02,26,13.10
2015,05,29,02,27,13.10
2015,05,29,02,28,13.10
2015,05,29,02,29,13.00
2015,05,29,02,30,13.00
2015,05,29,02,31,13.00
2015,05,29,02,32,13.00
2015,05,29,02,33,13.00
2015,05,29,02,34,13.00
2015,05,29,02,35,13.00
2015,05,29,02,36,13.00
2015,05,29,02,37,13.00
2015,05,29,02,38,12.90
2015,05,29,02,39,12.90
2015,05,29,02,40,12.90
2015,05,29,02,41,12.90
2015,05,29,02,42,12.90
2015,05,29,02,43,12.90
2015,05,29,02,44,12.90
2015,05,29,02,45,12.90
2015,05,29,02,46,12.90
2015,05,29,02,47,12.90
2015,05,29,02,48,12.90
2015,05,29,02,49,12.90
2015,05,29,02,50,12.90
2015,05,29,02,51,12.90
2015,05,29,02,52,12.90
2015,05,29,02,53,12.90
2015,05,29,02,54,12.90
2015,05,29,02,55,12.90
2015,05,29,02,56,12.90
2015,05,29,02,57,12.90
2015,05,29,02,58,12.90
2015,05,29,02,59,12.90
2015,05,29,03,00,12.90
2015,05,29,03,01,12.90
2015,05,29,03,02,12.80
2015,05,29,03,03,12.80
2015,05,29,03,04,12.80
2015,05,29,03,05,12.80
2015,05,29,03,06,12.80
2015,05,29,03,07,12.80
2015,05,29,03,08,12.80
2015,05,29,03,09,12.80
2015,05,29,03,10,12.80
2015,05,29,03,11,12.80
2015,05,29,03,12,12.80
2015,05,29,03,13,12.80
2015,05,29,03,14,12.80
2015,05,29,03,15,12.80
2015,05,29,03,16,12.90
2015,05,29,03,17,12.90
2015,05,29,03,18,12.90
2015,05,29,03,19,12.90
2015,05,29,03,20,12.90
2015,05,29,03,21,13.00
2015,05,29,03,22,12.90
2015,05,29,03,23,12.90
2015,05,29,03,24,12.90
2015,05,29,03,25,12.90
2015,05,29,03,26,12.90
2015,05,29,03,27,12.90
2015,05,29,03,28,12.90
2015,05,29,03,29,12.90
2015,05,29,03,30,12.80
2015,05,29,03,31,12.80
2015,05,29,03,32,12.80
2015,05,29,03,33,12.80
2015,05,29,03,34,12.80
2015,05,29,03,35,12.80
2015,05,29,03,36,12.80
2015,05,29,03,37,12.80
2015,05,29,03,38,12.80
2015,05,29,03,39,12.80
2015,05,29,03,40,12.80
2015,05,29,03,41,12.90
2015,05,29,03,42,12.90
2015,05,29,03,43,12.90
2015,05,29,03,44,12.90
2015,05,29,03,45,13.00
2015,05,29,03,46,13.00
2015,05,29,03,47,13.00
2015,05,29,03,48,13.00
2015,05,29,03,49,13.00
2015,05,29,03,50,13.00
2015,05,29,03,51,13.00
2015,05,29,03,52,13.00
2015,05,29,03,53,13.00
2015,05,29,03,54,12.90
2015,05,29,03,55,12.90
2015,05,29,03,56,12.90
2015,05,29,03,57,12.90
2015,05,29,03,58,12.80
2015,05,29,03,59,12.80
2015,05,29,04,00,12.80
2015,05,29,04,01,12.80
2015,05,29,04,02,12.80
2015,05,29,04,03,12.80
2015,05,29,04,04,12.70
2015,05,29,04,05,12.70
2015,05,29,04,06,12.70
2015,05,29,04,07,12.70
2015,05,29,04,08,12.60
2015,05,29,04,09,12.60
2015,05,29,04,10,12.50
2015,05,29,04,11,12.50
2015,05,29,04,12,12.50
2015,05,29,04,13,12.50
2015,05,29,04,14,12.40
2015,05,29,04,15,12.40
2015,05,29,04,16,12.40
2015,05,29,04,17,12.30
2015,05,29,04,18,12.30
2015,05,29,04,19,12.30
2015,05,29,04,20,12.30
2015,05,29,04,21,12.30
2015,05,29,04,22,12.20
2015,05,29,04,23,12.20
2015,05,29,04,24,12.20
2015,05,29,04,25,12.20
2015,05,29,04,26,12.20
2015,05,29,04,27,12.20
2015,05,29,04,28,12.20
2015,05,29,04,29,12.20
2015,05,29,04,30,12.20
2015,05,29,04,31,12.20
2015,05,29,04,32,12.20
2015,05,29,04,33,12.20
2015,05,29,04,34,12.20
2015,05,29,04,35,12.30
2015,05,29,04,36,12.30
2015,05,29,04,37,12.30
2015,05,29,04,38,12.30
2015,05,29,04,39,12.30
2015,05,29,04,40,12.30
2015,05,29,04,41,12.30
2015,05,29,04,42,12.30
2015,05,29,04,43,12.30
2015,05,29,04,44,12.30
2015,05,29,04,45,12.30
2015,05,29,04,46,12.30
2015,05,29,04,47,12.30
2015,05,29,04,48,12.20
2015,05,29,04,49,12.20
2015,05,29,04,50,12.20
2015,05,29,04,51,12.20
2015,05,29,04,52,12.20
2015,05,29,04,53,12.20
2015,05,29,04,54,12.10
2015,05,29,04,55,12.10
2015,05,29,04,56,12.10
2015,05,29,04,57,12.10
2015,05,29,04,58,12.10
2015,05,29,04,59,12.10
2015,05,29,05,00,12.10
2015,05,29,05,01,12.10
2015,05,29,05,02,12.00
2015,05,29,05,03,12.00
2015,05,29,05,04,12.00
2015,05,29,05,05,12.00
2015,05,29,05,06,12.00
2015,05,29,05,07,12.00
2015,05,29,05,08,12.00
2015,05,29,05,09,12.00
2015,05,29,05,10,11.90
2015,05,29,05,11,11.90
2015,05,29,05,12,11.90
2015,05,29,05,13,11.80
2015,05,29,05,14,11.80
2015,05,29,05,15,11.80
2015,05,29,05,16,11.80
2015,05,29,05,17,11.80
2015,05,29,05,18,11.80
2015,05,29,05,19,11.80
2015,05,29,05,20,11.80
2015,05,29,05,21,11.80
2015,05,29,05,22,11.80
2015,05,29,05,23,11.70
2015,05,29,05,24,11.70
2015,05,29,05,25,11.70
2015,05,29,05,26,11.70
2015,05,29,05,27,11.70
2015,05,29,05,28,11.70
2015,05,29,05,29,11.70
2015,05,29,05,30,11.70
2015,05,29,05,31,11.70
2015,05,29,05,32,11.60
2015,05,29,05,33,11.60
2015,05,29,05,34,11.60
2015,05,29,05,35,11.60
2015,05,29,05,36,11.60
2015,05,29,05,37,11.60
2015,05,29,05,38,11.60
2015,05,29,05,39,11.60
2015,05,29,05,40,11.70
2015,05,29,05,41,11.70
2015,05,29,05,42,11.70
2015,05,29,05,43,11.70
2015,05,29,05,44,11.70
2015,05,29,05,45,11.70
2015,05,29,05,46,11.70
2015,05,29,05,47,11.70
2015,05,29,05,48,11.70
2015,05,29,05,49,11.70
2015,05,29,05,50,11.70
2015,05,29,05,51,11.70
2015,05,29,05,52,11.70
2015,05,29,05,53,11.70
2015,05,29,05,54,11.80
2015,05,29,05,55,11.80
2015,05,29,05,56,11.80
2015,05,29,05,57,11.80
2015,05,29,05,58,11.80
2015,05,29,05,59,11.80
2015,05,29,06,00,11.80
2015,05,29,06,01,11.80
2015,05,29,06,02,11.80
2015,05,29,06,03,11.80
2015,05,29,06,04,11.80
2015,05,29,06,05,11.80
2015,05,29,06,06,11.80
2015,05,29,06,07,11.80
2015,05,29,06,08,11.80
2015,05,29,06,09,11.80
2015,05,29,06,10,11.80
2015,05,29,06,11,11.80
2015,05,29,06,12,11.80
2015,05,29,06,13,11.80
2015,05,29,06,14,11.80
2015,05,29,06,15,11.80
2015,05,29,06,16,11.80
2015,05,29,06,17,11.80
2015,05,29,06,18,11.80
2015,05,29,06,19,11.80
2015,05,29,06,20,11.90
2015,05,29,06,21,11.90
2015,05,29,06,22,11.90
2015,05,29,06,23,11.90
2015,05,29,06,24,12.00
2015,05,29,06,25,12.00
2015,05,29,06,26,12.00
2015,05,29,06,27,12.10
2015,05,29,06,28,12.10
2015,05,29,06,29,12.20
2015,05,29,06,30,12.20
2015,05,29,06,31,12.30
2015,05,29,06,32,12.30
2015,05,29,06,33,12.30
2015,05,29,06,34,12.40
2015,05,29,06,35,12.40
2015,05,29,06,36,12.50
2015,05,29,06,37,12.50
2015,05,29,06,38,12.50
2015,05,29,06,39,12.60
2015,05,29,06,40,12.70
2015,05,29,06,41,12.70
2015,05,29,06,42,12.80
2015,05,29,06,43,12.80
2015,05,29,06,44,12.90
2015,05,29,06,45,13.00
2015,05,29,06,46,13.10
2015,05,29,06,47,13.10
2015,05,29,06,48,13.20
2015,05,29,06,49,13.30
2015,05,29,06,50,13.40
2015,05,29,06,51,13.50
2015,05,29,06,52,13.60
2015,05,29,06,53,13.60
2015,05,29,06,54,13.70
2015,05,29,06,55,13.70
2015,05,29,06,56,13.80
2015,05,29,06,57,13.90
2015,05,29,06,58,14.00
2015,05,29,06,59,14.10
2015,05,29,07,00,14.20
2015,05,29,07,01,14.20
2015,05,29,07,02,14.20
2015,05,29,07,03,14.30
2015,05,29,07,04,14.40
2015,05,29,07,05,14.50
2015,05,29,07,06,14.60
2015,05,29,07,07,14.70
2015,05,29,07,08,14.80
2015,05,29,07,09,14.90
2015,05,29,07,10,15.00
2015,05,29,07,11,15.00
2015,05,29,07,12,15.10
2015,05,29,07,13,15.20
2015,05,29,07,14,15.20
2015,05,29,07,15,15.30
2015,05,29,07,16,15.30
2015,05,29,07,17,15.40
2015,05,29,07,18,15.50
2015,05,29,07,19,15.60
2015,05,29,07,20,15.60
2015,05,29,07,21,15.70
2015,05,29,07,22,15.80
2015,05,29,07,23,15.80
2015,05,29,07,24,15.80
2015,05,29,07,25,15.90
2015,05,29,07,26,16.00
2015,05,29,07,27,16.10
2015,05,29,07,28,16.20
2015,05,29,07,29,16.20
2015,05,29,07,30,16.30
2015,05,29,07,31,16.40
2015,05,29,07,32,16.40
2015,05,29,07,33,16.40
2015,05,29,07,34,16.40
2015,05,29,07,35,16.50
2015,05,29,07,36,16.60
2015,05,29,07,37,16.60
2015,05,29,07,38,16.60
2015,05,29,07,39,16.60
2015,05,29,07,40,16.70
2015,05,29,07,41,16.70
2015,05,29,07,42,16.70
2015,05,29,07,43,16.70
2015,05,29,07,44,16.70
2015,05,29,07,45,16.70
2015,05,29,07,46,16.80
2015,05,29,07,47,16.80
2015,05,29,07,48,16.90
2015,05,29,07,49,17.00
2015,05,29,07,50,17.10
2015,05,29,07,51,17.10
2015,05,29,07,52,17.20
2015,05,29,07,53,17.10
2015,05,29,07,54,17.10
2015,05,29,07,55,17.10
2015,05,29,07,56,17.10
2015,05,29,07,57,17.10
2015,05,29,07,58,17.10
2015,05,29,07,59,17.20
2015,05,29,08,00,17.30
2015,05,29,08,01,17.40
2015,05,29,08,02,17.50
2015,05,29,08,03,17.50
2015,05,29,08,04,17.60
2015,05,29,08,05,17.70
2015,05,29,08,06,17.70
2015,05,29,08,07,17.80
2015,05,29,08,08,17.90
2015,05,29,08,09,17.90
2015,05,29,08,10,18.00
2015,05,29,08,11,18.10
2015,05,29,08,12,18.20
2015,05,29,08,13,18.20
2015,05,29,08,14,18.20
2015,05,29,08,15,18.20
2015,05,29,08,16,18.20
2015,05,29,08,17,18.20
2015,05,29,08,18,18.30
2015,05,29,08,19,18.30
2015,05,29,08,20,18.40
2015,05,29,08,21,18.40
2015,05,29,08,22,18.50
2015,05,29,08,23,18.60
2015,05,29,08,24,18.60
2015,05,29,08,25,18.70
2015,05,29,08,26,18.70
2015,05,29,08,27,18.80
2015,05,29,08,28,18.90
2015,05,29,08,29,18.90
2015,05,29,08,30,19.10
2015,05,29,08,31,19.10
2015,05,29,08,32,19.10
2015,05,29,08,33,19.30
2015,05,29,08,34,19.40
2015,05,29,08,35,19.40
2015,05,29,08,36,19.50
2015,05,29,08,37,19.60
2015,05,29,08,38,19.60
2015,05,29,08,39,19.70
2015,05,29,08,40,19.80
2015,05,29,08,41,19.80
2015,05,29,08,42,19.80
2015,05,29,08,43,19.90
2015,05,29,08,44,19.90
2015,05,29,08,45,19.90
2015,05,29,08,46,19.90
2015,05,29,08,47,19.90
2015,05,29,08,48,19.90
2015,05,29,08,49,19.90
2015,05,29,08,50,19.90
2015,05,29,08,51,19.80
2015,05,29,08,52,19.70
2015,05,29,08,53,19.60
2015,05,29,08,54,19.60
2015,05,29,08,55,19.60
2015,05,29,08,56,19.50
2015,05,29,08,57,19.40
2015,05,29,08,58,19.40
2015,05,29,08,59,19.40
2015,05,29,09,00,19.40
2015,05,29,09,01,19.40
2015,05,29,09,02,19.50
2015,05,29,09,03,19.60
2015,05,29,09,04,19.60
2015,05,29,09,05,19.70
2015,05,29,09,06,19.80
2015,05,29,09,07,19.90
2015,05,29,09,08,19.90
2015,05,29,09,09,19.90
2015,05,29,09,10,19.90
2015,05,29,09,11,19.90
2015,05,29,09,12,19.90
2015,05,29,09,13,19.90
2015,05,29,09,14,19.90
2015,05,29,09,15,19.90
2015,05,29,09,16,19.90
2015,05,29,09,17,19.90
2015,05,29,09,18,19.90
2015,05,29,09,19,19.90
2015,05,29,09,20,19.90
2015,05,29,09,21,19.90
2015,05,29,09,22,19.90
2015,05,29,09,23,19.90
2015,05,29,09,24,19.90
2015,05,29,09,25,19.90
2015,05,29,09,26,19.90
2015,05,29,09,27,19.90
2015,05,29,09,28,19.90
2015,05,29,09,29,19.90
2015,05,29,09,30,19.90
2015,05,29,09,31,19.90
2015,05,29,09,32,19.90
2015,05,29,09,33,19.80
2015,05,29,09,34,19.80
2015,05,29,09,35,19.80
2015,05,29,09,36,19.80
2015,05,29,09,37,19.80
2015,05,29,09,38,19.80
2015,05,29,09,39,19.70
2015,05,29,09,40,19.70
2015,05,29,09,41,19.70
2015,05,29,09,42,19.70
2015,05,29,09,43,19.70
2015,05,29,09,44,19.70
2015,05,29,09,45,19.70
2015,05,29,09,46,19.70
2015,05,29,09,47,19.70
2015,05,29,09,48,19.70
2015,05,29,09,49,19.80
2015,05,29,09,50,19.90
2015,05,29,09,51,19.90
2015,05,29,09,52,19.90
2015,05,29,09,53,19.90
2015,05,29,09,54,19.90
2015,05,29,09,55,20.10
2015,05,29,09,56,20.10
2015,05,29,09,57,20.10
2015,05,29,09,58,20.10
2015,05,29,09,59,20.10
2015,05,29,10,00,20.10
2015,05,29,10,01,20.10
2015,05,29,10,02,20.20
2015,05,29,10,03,20.10
2015,05,29,10,04,20.10
2015,05,29,10,05,20.10
2015,05,29,10,06,20.20
2015,05,29,10,07,20.20
2015,05,29,10,08,20.20
2015,05,29,10,09,20.20
2015,05,29,10,10,20.20
2015,05,29,10,11,20.20
2015,05,29,10,12,20.20
2015,05,29,10,13,20.20
2015,05,29,10,14,20.20
2015,05,29,10,15,20.20
2015,05,29,10,16,20.20
2015,05,29,10,17,20.20
2015,05,29,10,18,20.20
2015,05,29,10,19,20.20
2015,05,29,10,20,20.20
2015,05,29,10,21,20.20
2015,05,29,10,22,20.20
2015,05,29,10,23,20.30
2015,05,29,10,24,20.30
2015,05,29,10,25,20.40
2015,05,29,10,26,20.40
2015,05,29,10,27,20.40
2015,05,29,10,28,20.30
2015,05,29,10,29,20.30
2015,05,29,10,30,20.20
2015,05,29,10,31,20.20
2015,05,29,10,32,20.20
2015,05,29,10,33,20.10
2015,05,29,10,34,20.10
2015,05,29,10,35,20.10
2015,05,29,10,36,20.10
2015,05,29,10,37,20.20
2015,05,29,10,38,20.20
2015,05,29,10,39,20.20
2015,05,29,10,40,20.20
2015,05,29,10,41,20.10
2015,05,29,10,42,20.10
2015,05,29,10,43,20.20
2015,05,29,10,44,20.20
2015,05,29,10,45,20.20
2015,05,29,10,46,20.30
2015,05,29,10,47,20.20
2015,05,29,10,48,20.20
2015,05,29,10,49,20.20
2015,05,29,10,50,20.20
2015,05,29,10,51,20.00
2015,05,29,10,52,19.90
2015,05,29,10,53,19.90
2015,05,29,10,54,19.90
2015,05,29,10,55,20.10
2015,05,29,10,56,20.10
2015,05,29,10,57,20.20
2015,05,29,10,58,20.20
2015,05,29,10,59,20.20
2015,05,29,11,00,20.20
2015,05,29,11,01,20.20
2015,05,29,11,02,20.30
2015,05,29,11,03,20.40
2015,05,29,11,04,20.50
2015,05,29,11,05,20.50
2015,05,29,11,06,20.50
2015,05,29,11,07,20.50
2015,05,29,11,08,20.50
2015,05,29,11,09,20.50
2015,05,29,11,10,20.50
2015,05,29,11,11,20.50
2015,05,29,11,12,20.50
2015,05,29,11,13,20.60
2015,05,29,11,14,20.40
2015,05,29,11,15,20.30
2015,05,29,11,16,20.20
2015,05,29,11,17,20.20
2015,05,29,11,18,20.20
2015,05,29,11,19,20.20
2015,05,29,11,20,20.20
2015,05,29,11,21,20.20
2015,05,29,11,22,20.20
2015,05,29,11,23,20.20
2015,05,29,11,24,20.20
2015,05,29,11,25,20.20
2015,05,29,11,26,20.20
2015,05,29,11,27,20.20
2015,05,29,11,28,20.20
2015,05,29,11,29,20.20
2015,05,29,11,30,20.20
2015,05,29,11,31,20.30
2015,05,29,11,32,20.20
2015,05,29,11,33,20.20
2015,05,29,11,34,20.20
2015,05,29,11,35,20.20
2015,05,29,11,36,20.20
2015,05,29,11,37,20.30
2015,05,29,11,38,20.40
2015,05,29,11,39,20.40
2015,05,29,11,40,20.30
2015,05,29,11,41,20.30
2015,05,29,11,42,20.40
2015,05,29,11,43,20.40
2015,05,29,11,44,20.40
2015,05,29,11,45,20.20
2015,05,29,11,46,20.30
2015,05,29,11,47,20.40
2015,05,29,11,48,20.50
2015,05,29,11,49,20.50
2015,05,29,11,50,20.50
2015,05,29,11,51,20.60
2015,05,29,11,52,20.50
2015,05,29,11,53,20.50
2015,05,29,11,54,20.60
2015,05,29,11,55,20.70
2015,05,29,11,56,20.70
2015,05,29,11,57,20.60
2015,05,29,11,58,20.60
2015,05,29,11,59,20.70
2015,05,29,12,00,20.70
2015,05,29,12,01,20.70
2015,05,29,12,02,20.80
2015,05,29,12,03,20.80
2015,05,29,12,04,20.80
2015,05,29,12,05,20.70
2015,05,29,12,06,20.70
2015,05,29,12,07,20.70
2015,05,29,12,08,20.60
2015,05,29,12,09,20.60
2015,05,29,12,10,20.60
2015,05,29,12,11,20.70
2015,05,29,12,12,20.70
2015,05,29,12,13,20.80
2015,05,29,12,14,20.90
2015,05,29,12,15,20.80
2015,05,29,12,16,20.80
2015,05,29,12,17,20.90
2015,05,29,12,18,20.80
2015,05,29,12,19,20.80
2015,05,29,12,20,20.70
2015,05,29,12,21,20.70
2015,05,29,12,22,20.80
2015,05,29,12,23,20.80
2015,05,29,12,24,20.90
2015,05,29,12,25,20.80
2015,05,29,12,26,20.70
2015,05,29,12,27,20.80
2015,05,29,12,28,20.70
2015,05,29,12,29,20.80
2015,05,29,12,30,20.70
2015,05,29,12,31,20.70
2015,05,29,12,32,20.80
2015,05,29,12,33,20.90
2015,05,29,12,34,21.00
2015,05,29,12,35,20.90
2015,05,29,12,36,20.90
2015,05,29,12,37,20.80
2015,05,29,12,38,20.60
2015,05,29,12,39,20.60
2015,05,29,12,40,20.60
2015,05,29,12,41,20.70
2015,05,29,12,42,20.70
2015,05,29,12,43,20.50
2015,05,29,12,44,20.40
2015,05,29,12,45,20.30
2015,05,29,12,46,20.30
2015,05,29,12,47,20.40
2015,05,29,12,48,20.50
2015,05,29,12,49,20.50
2015,05,29,12,50,20.30
2015,05,29,12,51,20.20
2015,05,29,12,52,20.20
2015,05,29,12,53,20.20
2015,05,29,12,54,20.10
2015,05,29,12,55,20.10
2015,05,29,12,56,20.10
2015,05,29,12,57,20.00
2015,05,29,12,58,19.90
2015,05,29,12,59,19.90
2015,05,29,13,00,19.90
2015,05,29,13,01,19.90
2015,05,29,13,02,19.90
2015,05,29,13,03,19.90
2015,05,29,13,04,20.00
2015,05,29,13,05,20.10
2015,05,29,13,06,20.00
2015,05,29,13,07,19.90
2015,05,29,13,08,19.80
2015,05,29,13,09,19.80
2015,05,29,13,10,19.80
2015,05,29,13,11,19.60
2015,05,29,13,12,19.60
2015,05,29,13,13,19.70
2015,05,29,13,14,19.70
2015,05,29,13,15,19.80
2015,05,29,13,16,19.80
2015,05,29,13,17,19.90
2015,05,29,13,18,19.90
2015,05,29,13,19,20.00
2015,05,29,13,20,20.10
2015,05,29,13,21,20.10
2015,05,29,13,22,20.10
2015,05,29,13,23,20.20
2015,05,29,13,24,20.20
2015,05,29,13,25,20.20
2015,05,29,13,26,20.20
2015,05,29,13,27,20.20
2015,05,29,13,28,20.20
2015,05,29,13,29,20.20
2015,05,29,13,30,20.20
2015,05,29,13,31,20.20
2015,05,29,13,32,20.20
2015,05,29,13,33,20.20
2015,05,29,13,34,20.20
2015,05,29,13,35,20.20
2015,05,29,13,36,20.20
2015,05,29,13,37,20.20
2015,05,29,13,38,20.30
2015,05,29,13,39,20.30
2015,05,29,13,40,20.30
2015,05,29,13,41,20.40
2015,05,29,13,42,20.50
2015,05,29,13,43,20.60
2015,05,29,13,44,20.80
2015,05,29,13,45,20.90
2015,05,29,13,46,21.00
2015,05,29,13,47,21.00
2015,05,29,13,48,21.00
2015,05,29,13,49,21.10
2015,05,29,13,50,21.30
2015,05,29,13,51,21.30
2015,05,29,13,52,21.50
2015,05,29,13,53,21.60
2015,05,29,13,54,21.60
2015,05,29,13,55,21.50
2015,05,29,13,56,21.50
2015,05,29,13,57,21.60
2015,05,29,13,58,21.60
2015,05,29,13,59,21.70
2015,05,29,14,00,21.70
2015,05,29,14,01,21.70
2015,05,29,14,02,21.70
2015,05,29,14,03,21.80
2015,05,29,14,04,21.90
2015,05,29,14,05,22.00
2015,05,29,14,06,22.10
2015,05,29,14,07,22.10
2015,05,29,14,08,22.30
2015,05,29,14,09,22.40
2015,05,29,14,10,22.50
2015,05,29,14,11,22.50
2015,05,29,14,12,22.60
2015,05,29,14,13,22.70
2015,05,29,14,14,22.70
2015,05,29,14,15,22.80
2015,05,29,14,16,22.80
2015,05,29,14,17,22.80
2015,05,29,14,18,22.80
2015,05,29,14,19,22.80
2015,05,29,14,20,22.80
2015,05,29,14,21,22.80
2015,05,29,14,22,22.70
2015,05,29,14,23,22.60
2015,05,29,14,24,22.70
2015,05,29,14,25,22.60
2015,05,29,14,26,22.50
2015,05,29,14,27,22.50
2015,05,29,14,28,22.60
2015,05,29,14,29,22.70
2015,05,29,14,30,22.90
2015,05,29,14,31,23.00
2015,05,29,14,32,23.20
2015,05,29,14,33,23.30
2015,05,29,14,34,23.30
2015,05,29,14,35,23.30
2015,05,29,14,36,23.30
2015,05,29,14,37,23.30
2015,05,29,14,38,23.30
2015,05,29,14,39,23.40
2015,05,29,14,40,23.50
2015,05,29,14,41,23.50
2015,05,29,14,42,23.60
2015,05,29,14,43,23.60
2015,05,29,14,44,23.70
2015,05,29,14,45,23.70
2015,05,29,14,46,23.70
2015,05,29,14,47,23.70
2015,05,29,14,48,23.70
2015,05,29,14,49,23.70
2015,05,29,14,50,23.70
2015,05,29,14,51,23.70
2015,05,29,14,52,23.70
2015,05,29,14,53,23.70
2015,05,29,14,54,23.70
2015,05,29,14,55,23.70
2015,05,29,14,56,23.60
2015,05,29,14,57,23.60
2015,05,29,14,58,23.60
2015,05,29,14,59,23.60
2015,05,29,15,00,23.60
2015,05,29,15,01,23.70
2015,05,29,15,02,23.70
2015,05,29,15,03,23.70
2015,05,29,15,04,23.70
2015,05,29,15,05,23.70
2015,05,29,15,06,23.70
2015,05,29,15,07,23.60
2015,05,29,15,08,23.70
2015,05,29,15,09,23.70
2015,05,29,15,10,23.80
2015,05,29,15,11,23.90
2015,05,29,15,12,24.00
2015,05,29,15,13,24.10
2015,05,29,15,14,24.10
2015,05,29,15,15,24.20
2015,05,29,15,16,24.30
2015,05,29,15,17,24.30
2015,05,29,15,18,24.40
2015,05,29,15,19,24.40
2015,05,29,15,20,24.50
2015,05,29,15,21,24.50
2015,05,29,15,22,24.60
2015,05,29,15,23,24.70
2015,05,29,15,24,24.90
2015,05,29,15,25,25.00
2015,05,29,15,26,25.00
2015,05,29,15,27,25.00
2015,05,29,15,28,25.10
2015,05,29,15,29,25.20
2015,05,29,15,30,25.30
2015,05,29,15,31,25.40
2015,05,29,15,32,25.50
2015,05,29,15,33,25.50
2015,05,29,15,34,25.60
2015,05,29,15,35,25.70
2015,05,29,15,36,25.80
2015,05,29,15,37,25.80
2015,05,29,15,38,25.90
2015,05,29,15,39,26.00
2015,05,29,15,40,26.10
2015,05,29,15,41,26.10
2015,05,29,15,42,26.10
2015,05,29,15,43,26.20
2015,05,29,15,44,26.10
2015,05,29,15,45,26.10
2015,05,29,15,46,26.20
2015,05,29,15,47,26.20
2015,05,29,15,48,26.30
2015,05,29,15,49,26.30
2015,05,29,15,50,26.40
2015,05,29,15,51,26.40
2015,05,29,15,52,26.40
2015,05,29,15,53,26.30
2015,05,29,15,54,26.30
2015,05,29,15,55,26.20
2015,05,29,15,56,26.20
2015,05,29,15,57,26.20
2015,05,29,15,58,26.20
2015,05,29,15,59,26.20
2015,05,29,16,00,26.20
2015,05,29,16,01,26.30
2015,05,29,16,02,26.20
2015,05,29,16,03,26.20
2015,05,29,16,04,26.00
2015,05,29,16,05,26.00
2015,05,29,16,06,26.00
2015,05,29,16,07,26.00
2015,05,29,16,08,26.00
2015,05,29,16,09,25.90
2015,05,29,16,10,25.90
2015,05,29,16,11,25.80
2015,05,29,16,12,25.80
2015,05,29,16,13,25.80
2015,05,29,16,14,25.80
2015,05,29,16,15,25.70
2015,05,29,16,16,25.50
2015,05,29,16,17,25.40
2015,05,29,16,18,25.40
2015,05,29,16,19,25.40
2015,05,29,16,20,25.40
2015,05,29,16,21,25.30
2015,05,29,16,22,25.30
2015,05,29,16,23,25.30
2015,05,29,16,24,25.40
2015,05,29,16,25,25.40
2015,05,29,16,26,25.50
2015,05,29,16,27,25.40
2015,05,29,16,28,25.30
2015,05,29,16,29,25.30
2015,05,29,16,30,25.40
2015,05,29,16,31,25.40
2015,05,29,16,32,25.40
2015,05,29,16,33,25.40
2015,05,29,16,34,25.40
2015,05,29,16,35,25.40
2015,05,29,16,36,25.40
2015,05,29,16,37,25.40
2015,05,29,16,38,25.40
2015,05,29,16,39,25.40
2015,05,29,16,40,25.40
2015,05,29,16,41,25.40
2015,05,29,16,42,25.50
2015,05,29,16,43,25.60
2015,05,29,16,44,25.60
2015,05,29,16,45,25.60
2015,05,29,16,46,25.60
2015,05,29,16,47,25.60
2015,05,29,16,48,25.40
2015,05,29,16,49,25.20
2015,05,29,16,50,25.10
2015,05,29,16,51,25.10
2015,05,29,16,52,25.10
2015,05,29,16,53,25.20
2015,05,29,16,54,25.20
2015,05,29,16,55,25.10
2015,05,29,16,56,25.00
2015,05,29,16,57,25.00
2015,05,29,16,58,24.90
2015,05,29,16,59,24.90
2015,05,29,17,00,24.90
2015,05,29,17,01,24.90
2015,05,29,17,02,24.80
2015,05,29,17,03,24.80
2015,05,29,17,04,24.60
2015,05,29,17,05,24.60
2015,05,29,17,06,24.50
2015,05,29,17,07,24.60
2015,05,29,17,08,24.60
2015,05,29,17,09,24.60
2015,05,29,17,10,24.60
2015,05,29,17,11,24.70
2015,05,29,17,12,24.70
2015,05,29,17,13,24.70
2015,05,29,17,14,24.70
2015,05,29,17,15,24.80
2015,05,29,17,16,24.90
2015,05,29,17,17,24.90
2015,05,29,17,18,24.90
2015,05,29,17,19,24.90